カタログに戻る

STARLINK-38021

運用中通信SSO
NORAD 69725·PAYLOAD·🇺🇸 United States

打ち上げ Jun 28, 2026 から Vandenberg Space Force Base

Loading…

次のパス (今後24時間)

TLE

最新Source: CelesTrak SupGP

元期: Sep 15, 2026, 03:23 UTC

1 69725C 26147X   26258.14145833 -.00031894  00000+0 -99005-3 0  2581
2 69725  97.2837 294.6381 0001282  89.3885  12.8321 15.33455917    15

AllMySatでSTARLINK-38021をリアルタイム追跡

Download on the App Store